Back to catalog

FENGYUN 1C DEB

LostSSO
NORAD 38160·DEBRIS·🇨🇳 China

Launched May 10, 1999 from Taiyuan Satellite Launch Center

Loading…

Next Passes (next 24 hours)

TLE

StaleSource: Space-Track

Epoch: Oct 21, 2022, 03:20 UTC

1 38160U 99025ERH 22294.13908144  .00004811  00000-0  21532-2 0  9991
2 38160  99.0354  46.1823 0034956 171.1448 189.0353 14.22735288480134

Track FENGYUN 1C DEB in real time with AllMySat

Download on the App Store